Bellaire, MI

10:38 AM EDT on May 20, 2018 (GMT -0400)
Antrim County

Weather History for KACB - April, 2013

Change the Weather History Date:

Wednesday, April 24, 2013

  Actual Average (KCVX) Record (KCVX)
Temperature  
Mean Temperature 36 °F -  
Max Temperature 44 °F 70 °F 78 °F (2008)
Min Temperature 29 °F 38 °F 23 °F (2015)
Degree Days  
Heating Degree Days 28    
Moisture  
Dew Point 28 °F    
Average Humidity 75    
Maximum Humidity 94    
Minimum Humidity 39    
Precipitation  
Precipitation 0.00 in - - ()
Sea Level Pressure  
Sea Level Pressure 29.93 in    
Wind  
Wind Speed 3 mph (NW)    
Max Wind Speed 14 mph    
Max Gust Speed 23 mph    
Visibility 10 miles    
Events      
Averages and records for this station are not official NWS values.
T = Trace of Precipitation, MM = Missing Value Source: NWS Daily Summary

Daily Weather History Graph

Daily Weather History Graph

Search for Another Location

Airport or City:

Astronomy

Apr. 24, 2013 Rise Set
Actual Time 6:40 AM EDT 8:37 PM EDT
Civil Twilight 6:09 AM EDT 9:09 PM EDT
Nautical Twilight 5:30 AM EDT 9:48 PM EDT
Astronomical Twilight 4:48 AM EDT 10:31 PM EDT
Moon 7:39 PM EDT (4/24) 5:47 AM EDT (4/24)
Length of Visible Light 15h 00m
Length of Day
13h 57m
Waxing Gibbous, 98% of the Moon is Illuminated
Apr 24
Waxing Gibbous
Apr 25
Full
May 2
Last Quarter
May 9
New
May 18
First Quarter

Hourly Weather History & Observations

Time (EDT) Temp. Windchill Dew Point Humidity Pressure Visibility Wind Dir Wind Speed Gust Speed Precip Events Conditions
12:14 AM 33.8 °F 29.6 °F 32.0 °F 93% 29.94 in 10.0 mi NW 4.6 mph - N/A   Overcast
12:34 AM 33.8 °F - 32.0 °F 93% 29.93 in 10.0 mi Calm Calm - N/A   Overcast
12:54 AM 33.8 °F 29.6 °F 32.0 °F 93% 29.92 in 10.0 mi NNW 4.6 mph - N/A   Overcast
1:14 AM 33.8 °F - 31.8 °F 92% 29.92 in 10.0 mi Calm Calm - N/A   Overcast
1:34 AM 33.8 °F - 32.0 °F 93% 29.92 in 10.0 mi Calm Calm - N/A   Overcast
1:54 AM 33.8 °F - 32.0 °F 93% 29.92 in 10.0 mi Calm Calm - N/A   Overcast
2:14 AM 33.8 °F - 32.0 °F 93% 29.91 in 10.0 mi Calm Calm - N/A   Overcast
2:34 AM 33.8 °F 30.8 °F 32.0 °F 93% 29.90 in 10.0 mi North 3.5 mph - N/A   Overcast
2:55 AM 33.8 °F 30.8 °F 31.8 °F 92% 29.90 in 10.0 mi NNW 3.5 mph - N/A   Overcast
3:14 AM 33.4 °F - 31.5 °F 92% 29.90 in 10.0 mi Calm Calm - N/A   Overcast
3:34 AM 33.4 °F - 31.6 °F 93% 29.90 in 10.0 mi Calm Calm - N/A   Overcast
3:54 AM 33.4 °F - 31.5 °F 92% 29.92 in 10.0 mi Calm Calm - N/A   Overcast
4:15 AM 33.3 °F - 31.5 °F 93% 29.90 in 10.0 mi Calm Calm - N/A   Scattered Clouds
4:34 AM 33.4 °F - 31.5 °F 92% 29.91 in 10.0 mi Calm Calm - N/A   Mostly Cloudy
4:54 AM 33.3 °F - 31.3 °F 92% 29.90 in 10.0 mi Calm Calm - N/A   Overcast
5:14 AM 33.4 °F - 31.6 °F 93% 29.91 in 10.0 mi Calm Calm - N/A   Overcast
5:34 AM 33.1 °F - 31.3 °F 93% 29.90 in 10.0 mi Calm Calm - N/A   Overcast
5:55 AM 33.1 °F - 31.5 °F 94% 29.90 in 10.0 mi Calm Calm - N/A   Overcast
6:14 AM 33.3 °F 28.9 °F 31.1 °F 92% 29.91 in 10.0 mi NW 4.6 mph - N/A   Overcast
6:34 AM 33.3 °F - 31.1 °F 92% 29.91 in 10.0 mi Calm Calm - N/A   Mostly Cloudy
6:55 AM 33.1 °F 30.0 °F 30.4 °F 90% 29.92 in 10.0 mi NNW 3.5 mph - N/A   Scattered Clouds
7:14 AM 33.3 °F 28.9 °F 30.0 °F 88% 29.92 in 10.0 mi NNW 4.6 mph - N/A   Mostly Cloudy
7:34 AM 33.4 °F 30.4 °F 29.3 °F 85% 29.92 in 10.0 mi NNW 3.5 mph - N/A   Overcast
7:55 AM 33.6 °F - 29.7 °F 85% 29.93 in 10.0 mi Calm Calm - N/A   Overcast
8:14 AM 33.8 °F 29.6 °F 30.0 °F 86% 29.92 in 10.0 mi NNW 4.6 mph - N/A   Overcast
8:34 AM 34.0 °F 29.8 °F 29.8 °F 85% 29.93 in 10.0 mi NNW 4.6 mph - N/A   Overcast
8:55 AM 34.0 °F 27.2 °F 28.9 °F 82% 29.93 in 10.0 mi NNW 8.1 mph - N/A   Overcast
9:14 AM 34.2 °F 27.5 °F 28.2 °F 79% 29.93 in 10.0 mi NNW 8.1 mph - N/A   Overcast
9:35 AM 34.9 °F 29.9 °F 28.4 °F 77% 29.93 in 10.0 mi NNW 5.8 mph - N/A   Overcast
9:55 AM 35.1 °F 29.3 °F 28.9 °F 78% 29.93 in 10.0 mi North 6.9 mph - N/A   Overcast
10:14 AM 35.2 °F 31.2 °F 29.5 °F 80% 29.92 in 10.0 mi North 4.6 mph - N/A   Overcast
10:35 AM 35.6 °F 30.7 °F 30.0 °F 80% 29.93 in 10.0 mi NNW 5.8 mph - N/A   Overcast
10:54 AM 35.2 °F 31.2 °F 30.4 °F 82% 29.92 in 10.0 mi NW 4.6 mph - N/A   Overcast
11:14 AM 35.8 °F 31.9 °F 29.7 °F 78% 29.91 in 10.0 mi NW 4.6 mph - N/A   Overcast
11:34 AM 35.6 °F 31.7 °F 29.1 °F 77% 29.92 in 10.0 mi NNW 4.6 mph - N/A   Overcast
11:54 AM 36.1 °F 30.6 °F 28.6 °F 74% 29.92 in 10.0 mi NW 6.9 mph - N/A   Overcast
12:15 PM 36.5 °F 31.8 °F 28.0 °F 71% 29.93 in 10.0 mi NNW 5.8 mph - N/A   Overcast
12:34 PM 37.4 °F 30.8 °F 28.6 °F 70% 29.93 in 10.0 mi NW 9.2 mph - N/A   Overcast
12:55 PM 37.6 °F 34.0 °F 30.6 °F 76% 29.92 in 10.0 mi WNW 4.6 mph - N/A   Overcast
1:14 PM 38.1 °F 31.7 °F 30.0 °F 73% 29.92 in 10.0 mi WNW 9.2 mph 17.3 mph N/A   Overcast
1:35 PM 38.7 °F 36.3 °F 30.4 °F 72% 29.91 in 10.0 mi NW 3.5 mph - N/A   Overcast
1:55 PM 39.0 °F 34.0 °F 29.7 °F 69% 29.90 in 10.0 mi NW 6.9 mph - N/A   Overcast
2:14 PM 39.6 °F 32.5 °F 29.8 °F 68% 29.91 in 10.0 mi WNW 11.5 mph 17.3 mph N/A   Overcast
2:35 PM 40.6 °F 36.7 °F 29.7 °F 65% 29.91 in 10.0 mi NW 5.8 mph 18.4 mph N/A   Mostly Cloudy
2:55 PM 41.7 °F 37.3 °F 28.6 °F 60% 29.91 in 10.0 mi NW 6.9 mph - N/A   Scattered Clouds
3:14 PM 41.7 °F 36.7 °F 25.7 °F 53% 29.92 in 10.0 mi NW 8.1 mph 16.1 mph N/A   Scattered Clouds
3:35 PM 41.4 °F 35.7 °F 24.6 °F 51% 29.92 in 10.0 mi West 9.2 mph 18.4 mph N/A   Clear
3:54 PM 41.9 °F 36.9 °F 24.1 °F 49% 29.92 in 10.0 mi West 8.1 mph 18.4 mph N/A   Clear
4:15 PM 41.9 °F 34.6 °F 24.1 °F 49% 29.93 in 10.0 mi West 13.8 mph 20.7 mph N/A   Clear
4:35 PM 42.1 °F 38.4 °F 24.6 °F 50% 29.92 in 10.0 mi West 5.8 mph 23.0 mph N/A   Clear
4:54 PM 43.2 °F 39.0 °F 23.4 °F 46% 29.93 in 10.0 mi WNW 6.9 mph 17.3 mph N/A   Clear
5:15 PM 43.9 °F - 22.3 °F 42% 29.93 in 10.0 mi Calm Calm - N/A   Clear
5:34 PM 43.7 °F 39.1 °F 20.7 °F 40% 29.93 in 10.0 mi West 8.1 mph 21.9 mph N/A   Clear
5:54 PM 44.1 °F 39.5 °F 20.7 °F 39% 29.93 in 10.0 mi NW 8.1 mph - N/A   Clear
6:15 PM 44.6 °F 43.1 °F 21.6 °F 40% 29.94 in 10.0 mi West 3.5 mph - N/A   Clear
6:34 PM 44.1 °F 42.5 °F 21.9 °F 42% 29.94 in 10.0 mi West 3.5 mph - N/A   Clear
6:55 PM 44.2 °F 41.8 °F 21.6 °F 41% 29.94 in 10.0 mi West 4.6 mph - N/A   Clear
7:15 PM 43.7 °F 42.1 °F 20.8 °F 40% 29.95 in 10.0 mi West 3.5 mph - N/A   Clear
7:34 PM 43.7 °F 42.1 °F 20.8 °F 40% 29.95 in 10.0 mi West 3.5 mph - N/A   Clear
7:55 PM 43.3 °F - 19.6 °F 39% 29.95 in 10.0 mi Calm Calm - N/A   Clear
8:15 PM 42.3 °F - 23.7 °F 48% 29.95 in 10.0 mi Calm Calm - N/A   Clear
8:34 PM 38.7 °F - 27.3 °F 64% 29.95 in 10.0 mi Calm Calm - N/A   Clear
8:55 PM 36.5 °F - 27.9 °F 71% 29.96 in 5.0 mi Calm Calm - N/A   Haze
9:15 PM 35.1 °F - 28.8 °F 78% 29.96 in 10.0 mi Calm Calm - N/A   Clear
9:34 PM 33.8 °F - 27.3 °F 77% 29.97 in 10.0 mi Calm Calm - N/A   Clear
9:55 PM 32.0 °F - 27.5 °F 83% 29.98 in 10.0 mi Calm Calm - N/A   Clear
10:55 PM 30.9 °F - 28.2 °F 90% 29.99 in 10.0 mi Calm Calm - N/A   Clear
11:14 PM 30.7 °F - 27.5 °F 88% 30.00 in 10.0 mi Calm Calm - N/A   Clear
11:35 PM 29.8 °F - 26.4 °F 87% 29.99 in 10.0 mi Calm Calm - N/A   Clear
11:54 PM 30.0 °F - 26.6 °F 87% 29.99 in 10.0 mi Calm Calm - N/A   Clear